Weather History for K79J - August, 2013

Change the Weather History Date:

Sunday, August 25, 2013

  Actual Average (KCEW) Record (KCEW)
Temperature  
Mean Temperature 79 °F -  
Max Temperature 87 °F 92 °F 98 °F (1989)
Min Temperature 71 °F 71 °F 64 °F (1997)
Cooling Degree Days 14    
Growing Degree Days 29 (Base 50)    
Moisture  
Dew Point 70 °F    
Average Humidity 79    
Maximum Humidity 94    
Minimum Humidity 57    
Precipitation  
Precipitation 0.16 in - - ()
Sea Level Pressure  
Sea Level Pressure 30.19 in    
Wind  
Wind Speed 8 mph (ESE)    
Max Wind Speed 13 mph    
Max Gust Speed 24 mph    
Visibility 10 miles    
Events Rain    
Averages and records for this station are not official NWS values.
T = Trace of Precipitation, MM = Missing Value Source: NWS Daily Summary

Daily Weather History Graph

Daily Weather History Graph

Search for Another Location

Airport or City:

Trip Planner

Search our weather history database for the weather conditions in past years. The results will help you decide how hot, cold, wet, or windy it might be!

Date:

Astronomy

Aug. 25, 2013 Rise Set
Actual Time 6:17 AM CDT 7:17 PM CDT
Civil Twilight 5:52 AM CDT 7:42 PM CDT
Nautical Twilight 5:22 AM CDT 8:11 PM CDT
Astronomical Twilight 4:52 AM CDT 8:42 PM CDT
Moon 10:12 PM CDT (8/25) 10:55 AM CDT (8/25)
Length of Visible Light 13h 49m
Length of Day
12h 59m
Waning Gibbous, 75% of the Moon is Illuminated
Aug 25
Waning Gibbous
Aug 28
Last Quarter
Sep 5
New
Sep 12
First Quarter
Sep 19
Full

Hourly Weather History & Observations

Time (CDT) Temp. Heat Index Dew Point Humidity Pressure Visibility Wind Dir Wind Speed Gust Speed Precip Events Conditions
12:04 AM 71.6 °F - 68.0 °F 88% 30.19 in - SE 11.5 mph 24.2 mph 0.05 in Rain Heavy Rain
12:56 AM 72.0 °F - 68.0 °F 87% 30.14 in - ESE 5.8 mph - 0.14 in Rain Light Rain
1:56 AM 72.0 °F - 68.0 °F 87% 30.15 in - ESE 9.2 mph - 0.01 in   Clear
2:56 AM 72.0 °F - 68.0 °F 87% 30.16 in - ENE 3.5 mph - N/A   Overcast
3:56 AM 72.0 °F - 69.1 °F 91% 30.15 in 10.0 mi East 4.6 mph - N/A   Partly Cloudy
4:37 AM 73.4 °F - 69.8 °F 88% 30.17 in - East 8.1 mph - N/A   Scattered Clouds
4:56 AM 73.0 °F - 70.0 °F 90% 30.17 in 10.0 mi ESE 8.1 mph - N/A   Scattered Clouds
5:12 AM 73.4 °F - 69.8 °F 88% 30.19 in 10.0 mi ESE 6.9 mph - N/A   Mostly Cloudy
5:39 AM 73.4 °F - 71.6 °F 94% 30.19 in 10.0 mi SE 4.6 mph - N/A   Overcast
5:56 AM 73.9 °F - 71.1 °F 91% 30.18 in 10.0 mi SE 6.9 mph - N/A   Overcast
6:28 AM 73.4 °F - 71.6 °F 94% 30.20 in 10.0 mi ESE 8.1 mph - N/A   Overcast
6:56 AM 75.0 °F - 71.1 °F 87% 30.19 in 10.0 mi ESE 9.2 mph - N/A   Overcast
7:40 AM 75.2 °F - 71.6 °F 89% 30.22 in 10.0 mi ESE 10.4 mph - N/A   Overcast
7:56 AM 75.9 °F - 72.0 °F 87% 30.21 in 10.0 mi ESE 8.1 mph - N/A   Overcast
8:56 AM 77.0 °F - 72.0 °F 84% 30.22 in 10.0 mi SE 8.1 mph - N/A   Overcast
9:24 AM 78.8 °F - 71.6 °F 78% 30.23 in 10.0 mi ESE 12.7 mph 16.1 mph N/A   Overcast
9:56 AM 79.0 °F - 72.0 °F 79% 30.22 in 10.0 mi SE 8.1 mph 17.3 mph N/A   Mostly Cloudy
10:35 AM 80.6 °F 84.6 °F 71.6 °F 74% 30.22 in 10.0 mi ESE 11.5 mph 19.6 mph 0.01 in   Mostly Cloudy
10:56 AM 82.9 °F 88.0 °F 72.0 °F 69% 30.21 in 10.0 mi SE 11.5 mph - 0.01 in   Mostly Cloudy
11:56 AM 84.0 °F 90.2 °F 73.0 °F 69% 30.21 in 10.0 mi ESE 8.1 mph - N/A   Mostly Cloudy
12:03 PM 82.4 °F 87.2 °F 71.6 °F 70% 30.22 in 10.0 mi SE 8.1 mph - N/A   Mostly Cloudy
12:56 PM 86.0 °F 92.2 °F 72.0 °F 63% 30.19 in 10.0 mi ESE 11.5 mph - N/A   Scattered Clouds
1:56 PM 86.0 °F 91.5 °F 71.1 °F 61% 30.17 in 10.0 mi ESE 11.5 mph - N/A   Scattered Clouds
2:56 PM 86.0 °F 90.7 °F 70.0 °F 59% 30.16 in 10.0 mi SE 9.2 mph - N/A   Partly Cloudy
3:56 PM 87.1 °F 92.0 °F 70.0 °F 57% 30.15 in 10.0 mi ESE 9.2 mph - N/A   Clear
4:56 PM 84.9 °F 89.4 °F 70.0 °F 61% 30.16 in 10.0 mi East 11.5 mph - N/A   Mostly Cloudy
5:56 PM 84.9 °F 89.4 °F 70.0 °F 61% 30.16 in 10.0 mi ESE 8.1 mph - N/A   Clear
6:56 PM 81.0 °F 84.1 °F 69.1 °F 67% 30.17 in 10.0 mi East 3.5 mph - N/A   Clear
7:56 PM 75.9 °F - 70.0 °F 82% 30.19 in - East 3.5 mph - N/A   Clear
8:56 PM 73.9 °F - 70.0 °F 87% 30.21 in 10.0 mi Calm Calm - N/A   Clear
9:56 PM 73.9 °F - 68.0 °F 82% 30.22 in 10.0 mi East 3.5 mph - N/A   Clear
10:56 PM 73.0 °F - 68.0 °F 84% 30.22 in 10.0 mi East 3.5 mph - N/A   Clear
11:56 PM 73.0 °F - 66.0 °F 79% 30.21 in - ESE 6.9 mph - N/A   Clear